Location: Casteau
(50.5142°N, 4.0161°E)
Time: 07:46:52
(UTC+00:00)

Transit 2A - Pass Details

Date: 31 July 2021
Orbit: 594 x 964 km, 66.7° (Epoch: 24 September)

Event Time Altitude Azimuth Distance (km) Brightness Sun altitude
Rises 11:00:34 0° 313° (NW) 3,038 8.8 56.1°
Reaches altitude 10° 11:04:05 10° 340° (NNW) 2,201 8.2 56.3°
Maximum altitude 11:06:32 13° 10° (N) 2,028 8.1 56.5°
Drops below altitude 10° 11:09:05 10° 39° (NE) 2,320 8.4 56.6°
Sets 11:13:00 0° 65° (ENE) 3,344 9.3 56.8°
